Regional Weather Roundup
Issued by NWS

Home | Current Version | Previous Version | Text Only | Print | Product List | Glossary On
Versions: 1 2 3 4 5 6 7 8 9 10 11 12 13 14 15 16 17 18 19 20 21 22 23 24 25 26 27
000
ASUS42 KTBW 210915
RWRFL
FLORIDA REGIONAL WEATHER ROUNDUP
NATIONAL WEATHER SERVICE TAMPA BAY RUSKIN FL
400 AM EST SUN JAN 21 2018

NOTE: "FAIR" INDICATES FEW OR NO CLOUDS BELOW 12,000 FEET WITH NO
SIGNIFICANT WEATHER AND/OR OBSTRUCTIONS TO VISIBILITY.

FLZ001>010-012>015-112-114-115-211000-
PANHANDLE FLORIDA

CITY           SKY/WX    TMP DP  RH WIND       PRES   REMARKS
PENSACOLA      FAIR      51  45  79 E8        30.20F
PENSACOLA NAS  FAIR      45  43  93 E5        30.19F WCI  43
MILTON NAS     FAIR      40  39  97 CALM      30.22
CRESTVIEW      FAIR      37  35  92 CALM      30.24S
DUKE FIELD     FAIR      38  36  94 CALM      30.22R
VALPARAISO     CLEAR     44  41  89 CALM      30.22S
MARY ESTHER    FAIR      44  42  94 NE3       30.20S
PANAMA CITY    FAIR      42  38  85 NW3       30.23R
TYNDALL AFB    FAIR      42  39  87 CALM      30.23S
APALACHICOLA   FAIR      42  39  89 NE5       30.22F WCI  39

STATION/POSITION SKY/WX   TEMP    WIND        PRES    WAVE   SWELL
                          AIR SEA DIR/SP/G            HT/PER HT/PER
                          (F)     (DEG/KT/KT) (MB)    (FT/S) (FT/S)
PANAMA CITY BEAC NOT AVBL
TOWER C          NOT AVBL

$$
FLZ011-016>038-118-127-128-134-139-239-211000-
NORTH FLORIDA

CITY           SKY/WX    TMP DP  RH WIND       PRES   REMARKS
MARIANNA       FAIR      45  40  82 CALM      30.23S
TALLAHASSEE    FAIR      40  34  79 CALM      30.23F
PERRY          FAIR      43  35  75 CALM      30.24F
LIVE OAK       MOCLDY    45  45 100 CALM      30.25F
CROSS CITY     FAIR      43  40  88 CALM      30.28S
LAKE CITY      MOCLDY    45  41  87 CALM      30.24F
GAINESVILLE    LGT RAIN  46  41  82 CALM      30.25F
WILLISTON        N/A     50  46  87 CALM      30.24R
PALATKA        CLOUDY    48  39  71 CALM      30.24F
MAYPORT NAS    RAIN      49  45  86 N3        30.24F FOG
JACKSONVILLE   LGT RAIN  47  41  80 SE3       30.25S
JAX NAS        MOCLDY    50  45  83 N3        30.25F
JAX CECIL        N/A     46  45  93 MISG      30.25R
FERNANDINA BEA CLOUDY    48  39  71 CALM      30.24S
ST AUGUSTINE   LGT RAIN  50  41  71 NE3       30.25S
PALM COAST     MOCLDY    51  43  73 N6        30.22F

STATION/POSITION SKY/WX   TEMP    WIND        PRES    WAVE   SWELL
                          AIR SEA DIR/SP/G            HT/PER HT/PER
                          (F)     (DEG/KT/KT) (MB)    (FT/S) (FT/S)
SHELL POINT      NOT AVBL
KEATON BEACH     NOT AVBL
CEDAR KEY        NOT AVBL
FERNANDINA       NOT AVBL
MAYPORT          NOT AVBL
ST AUGUSTINE     NOT AVBL

$$
FLZ040-043>046-052-053-057-058-063-144-211000-
INTERIOR CENTRAL FLORIDA

CITY           SKY/WX    TMP DP  RH WIND       PRES   REMARKS
OCALA          FAIR      51  42  71 NE3       30.22F
LEESBURG       FAIR      54  46  74 CALM      30.22F
SANFORD        FAIR      55  47  74 N6        30.21S
ORLANDO EXEC   FAIR      57  50  77 NW3       30.22R
ORLANDO INTL   CLOUDY    56  51  84 N6        30.22R
KISSIMMEE      FAIR      59  52  77 NW6       30.23R
WINTER HAVEN   FAIR      57  52  83 N3        30.22R
LAKELAND       FAIR      55  50  82 NE3       30.20F
BARTOW         FAIR      57  52  82 N5        30.21S
SEBRING        FAIR      57  53  86 CALM      30.19S
OKEECHOBEE     FAIR      59  55  88 N3        30.20R

$$
FLZ041-047-054-059-064-141-147-211000-
EAST CENTRAL FLORIDA

CITY           SKY/WX    TMP DP  RH WIND       PRES   REMARKS
DAYTONA BEACH  CLOUDY    55  49  80 CALM      30.23R
DELAND         CLOUDY    54  46  76 N5        30.22S
JFK SPACE CTR  FAIR      58  58 100 NE7       30.19S
CAPE CANAVERAL FAIR      60  56  88 N7        30.18S
PATRICK AFB    MOCLDY    60  58  94 NW6       30.19R
MELBOURNE      MOCLDY    62  57  83 N5        30.19R
VERO BEACH     FAIR      59  58  96 NW5       30.18F
FT PIERCE      FAIR      59  59 100 CALM      30.18F
STUART         FAIR      59  59 100 CALM      30.19F

STATION/POSITION SKY/WX   TEMP    WIND        PRES    WAVE   SWELL
                          AIR SEA DIR/SP/G            HT/PER HT/PER
                          (F)     (DEG/KT/KT) (MB)    (FT/S) (FT/S)
TRIDENT PIER     NOT AVBL

$$
FLZ050-056-061-142-242-148-248-149-249-151-251-155-255-
160-260-211000-
WEST CENTRAL FLORIDA

CITY           SKY/WX    TMP DP  RH WIND       PRES   REMARKS
CRYSTAL RIVER  FAIR      52  45  76 NE3       30.22F
INVERNESS      FAIR      50  46  87 CALM      30.24R
BROOKSVILLE    FAIR      54  48  80 NE6       30.22R
CLEARWATER AIR FAIR      55  50  82 NE5       30.20R
ST PETE CLEARW FAIR      56  53  90 N5        30.20S
TAMPA INTL     MOCLDY    60  51  72 NE3       30.20F
TAMPA EXEC     FAIR      55  52  88 CALM      30.21F
PLANT CITY     FAIR      59  52  77 NE3       30.21F
MACDILL AFB    PTCLDY    57  52  82 E8        30.19S
PETER O KNIGHT CLOUDY    57  52  82 NE8       30.20S
ST PETERSBURG  FAIR      58  53  84 N6        30.18F
SARASOTA       FAIR      58  54  86 NE6       30.17S
VENICE           N/A     59  55  88 E9        30.18F

STATION/POSITION SKY/WX   TEMP    WIND        PRES    WAVE   SWELL
                          AIR SEA DIR/SP/G            HT/PER HT/PER
                          (F)     (DEG/KT/KT) (MB)    (FT/S) (FT/S)
CLEARWATER BEACH NOT AVBL
MIDDLE TAMPA BAY NOT AVBL
VENICE           NOT AVBL

$$
FLZ066-069-070-075>078-162-262-165-265-211000-
SOUTHWEST FLORIDA AND KEYS

CITY           SKY/WX    TMP DP  RH WIND       PRES   REMARKS
PUNTA GORDA    FAIR      58  54  86 NE7       30.19S
FT MYERS       FAIR      60  57  89 NE8       30.16F
SOUTHWEST INTL FAIR      59  57  93 NE6       30.16F
NAPLES         FAIR      62  59  90 NE7       30.14F
MARCO ISLAND   MOCLDY    62  58  86 N7        30.16S
IMMOKALEE      MOCLDY    59  57  94 NE5       30.17F
MARATHON       FAIR      66  62  87 E5        30.13F
KEY WEST NAS   FAIR      65  65 100 NE7       30.13S
KEY WEST INTL  FAIR      65  62  90 NE7       30.13S

STATION/POSITION SKY/WX   TEMP    WIND        PRES    WAVE   SWELL
                          AIR SEA DIR/SP/G            HT/PER HT/PER
                          (F)     (DEG/KT/KT) (MB)    (FT/S) (FT/S)
NAPLES           NOT AVBL
DRY TORTUGAS     NOT AVBL

$$
FLZ067-068-071>074-168-172>174-211000-
SOUTHEAST FLORIDA

CITY           SKY/WX    TMP DP  RH WIND       PRES   REMARKS
W PALM BEACH   FAIR      70  61  73 E9        30.16F
FT LAUDER-EXEC LGT RAIN  69  65  86 E12       30.16R
FT LAUDERDALE  MOCLDY    71  65  81 E8        30.17R
POMPANO BEACH  LGT RAIN  72  66  81 E14       30.16R
PEMBROKE PINES MOCLDY    71  63  75 E7        30.18R
OPA LOCKA      FAIR      70  64  81 N3        30.17R
MIAMI          CLOUDY    72  64  76 N6        30.16R
WEST KENDALL   FAIR      68  63  84 NE6       30.15R
HOMESTEAD      FAIR      69  69  99 E8        30.13F

STATION/POSITION SKY/WX   TEMP    WIND        PRES    WAVE   SWELL
                          AIR SEA DIR/SP/G            HT/PER HT/PER
                          (F)     (DEG/KT/KT) (MB)    (FT/S) (FT/S)

$$





USA.gov is the U.S. government's official web portal to all federal, state and local government web resources and services.